{"data":{"norad_id":63346,"epoch":"2026-09-22T23:46:21.997632Z","epoch_age_seconds":91081,"freshness":"FRESH","line1":"1 63346U 25059C   26265.99053238  .00002669  00000+0  16108-3 0  9994","line2":"2 63346  97.6151  87.0635 0015710 176.4478 183.6866 15.11509118 83071","mean_motion":15.11509118,"eccentricity":0.001571,"inclination_deg":97.6151,"raan_deg":87.0635,"arg_perigee_deg":176.4478,"mean_anomaly_deg":183.6866,"bstar":0.00016108,"rev_number":8307,"period_min":95.269025032769,"perigee_km":520.74177887568,"apogee_km":542.45216301239,"semimajor_km":6909.733970944,"source":"CELESTRAK","updated_at":"2026-09-23T09:00:22.028902Z"}}